Bentonville, AR

12:32 PM CDT on July 25, 2016 (GMT -0500)
Bentonville Municipal-Thaden

Weather History for KVBT - October, 2015

Change the Weather History Date:

Friday, October 23, 2015

  Actual Average Record
Temperature  
Mean Temperature 66 °F -  
Max Temperature 71 °F 66 °F 80 °F (1955)
Min Temperature 62 °F 43 °F 25 °F (1952)
Cooling Degree Days 2    
Growing Degree Days 16 (Base 50)    
Moisture  
Dew Point 60 °F    
Average Humidity 79    
Maximum Humidity 88    
Minimum Humidity 69    
Precipitation  
Precipitation 0.58 in - - ()
Sea Level Pressure  
Sea Level Pressure 29.98 in    
Wind  
Wind Speed 9 mph (South)    
Max Wind Speed 17 mph    
Max Gust Speed 24 mph    
Visibility 10 miles    
Events      
Averages and records for this station are not official NWS values.
T = Trace of Precipitation, MM = Missing Value Source: NWS Daily Summary

Daily Weather History Graph

Daily Weather History Graph

Search for Another Location

Airport or City:

Trip Planner

Search our weather history database for the weather conditions in past years. The results will help you decide how hot, cold, wet, or windy it might be!

Date:

Astronomy

Oct. 23, 2015 Rise Set
Actual Time 7:31 AM CDT 6:30 PM CDT
Civil Twilight 7:04 AM CDT 6:57 PM CDT
Nautical Twilight 6:34 AM CDT 7:27 PM CDT
Astronomical Twilight 6:04 AM CDT 7:56 PM CDT
Moon 4:10 PM CDT (10/23) 2:56 AM CDT (10/23)
Length of Visible Light 11h 52m
Length of Day
10h 59m
Waxing Gibbous, 80% of the Moon is Illuminated
Oct 23
Waxing Gibbous
Oct 27
Full
Nov 3
Last Quarter
Nov 11
New
Nov 19
First Quarter

Hourly Weather History & Observations

Time (CDT) Temp. Dew Point Humidity Pressure Visibility Wind Dir Wind Speed Gust Speed Precip Events Conditions
12:15 AM 62.6 °F 57.2 °F 82% 30.13 in 7.0 mi SSE 4.6 mph - 0.11 in   Mostly Cloudy
12:35 AM 62.6 °F 57.2 °F 82% 30.10 in 6.0 mi ESE 8.1 mph - 0.20 in   Overcast
12:55 AM 62.6 °F 57.2 °F 82% 30.12 in 5.0 mi SSE 8.1 mph - 0.29 in   Overcast
1:15 AM 62.6 °F 57.2 °F 82% 30.09 in 5.0 mi SE 5.8 mph - 0.11 in   Overcast
1:35 AM 62.6 °F 57.2 °F 82% 30.06 in 7.0 mi ESE 12.7 mph - 0.22 in   Overcast
1:55 AM 62.6 °F 57.2 °F 82% 30.01 in 8.0 mi ESE 16.1 mph - 0.27 in   Overcast
2:15 AM 62.6 °F 57.2 °F 82% 30.01 in 10.0 mi SE 16.1 mph 23.0 mph 0.01 in   Mostly Cloudy
2:35 AM 62.6 °F 57.2 °F 82% 30.00 in 10.0 mi SE 17.3 mph 24.2 mph 0.02 in   Clear
2:55 AM 62.6 °F 57.2 °F 82% 29.99 in 10.0 mi ESE 13.8 mph 20.7 mph 0.02 in   Clear
3:15 AM 62.6 °F 57.2 °F 82% 30.00 in 10.0 mi SE 12.7 mph 18.4 mph N/A   Clear
3:35 AM 62.6 °F 57.2 °F 82% 30.00 in 10.0 mi SSE 12.7 mph - N/A   Partly Cloudy
3:55 AM 62.6 °F 57.2 °F 82% 29.99 in 10.0 mi SE 9.2 mph - N/A   Partly Cloudy
4:15 AM 62.6 °F 57.2 °F 82% 29.98 in 10.0 mi SSE 9.2 mph - N/A   Scattered Clouds
4:35 AM 62.6 °F 57.2 °F 82% 29.97 in 10.0 mi SE 10.4 mph - N/A   Scattered Clouds
4:55 AM 62.6 °F 57.2 °F 82% 29.96 in 10.0 mi SE 11.5 mph - N/A   Mostly Cloudy
5:15 AM 62.6 °F 57.2 °F 82% 29.95 in 10.0 mi SE 11.5 mph - N/A   Overcast
5:35 AM 64.4 °F 59.0 °F 83% 29.95 in 10.0 mi SSE 9.2 mph - N/A   Mostly Cloudy
5:55 AM 64.4 °F 59.0 °F 83% 29.95 in 10.0 mi SSE 9.2 mph - N/A   Mostly Cloudy
6:15 AM 66.2 °F 60.8 °F 83% 29.96 in 10.0 mi South 12.7 mph 16.1 mph N/A   Overcast
6:35 AM 66.2 °F 60.8 °F 83% 29.94 in 10.0 mi South 15.0 mph 20.7 mph N/A   Overcast
6:55 AM 66.2 °F 60.8 °F 83% 29.95 in 10.0 mi South 10.4 mph 17.3 mph N/A   Overcast
7:15 AM 66.2 °F 60.8 °F 83% 29.96 in 10.0 mi SSW 8.1 mph - N/A   Overcast
7:35 AM 66.2 °F 60.8 °F 83% 29.96 in 10.0 mi SSW 4.6 mph - N/A   Overcast
7:55 AM 66.2 °F 60.8 °F 83% 29.96 in 10.0 mi Calm Calm - N/A   Overcast
8:15 AM 66.2 °F 60.8 °F 83% 29.96 in 10.0 mi SSW 5.8 mph - N/A   Overcast
8:35 AM 66.2 °F 60.8 °F 83% 29.97 in 10.0 mi South 4.6 mph - N/A   Scattered Clouds
8:55 AM 66.2 °F 60.8 °F 83% 29.98 in 10.0 mi South 3.5 mph - N/A   Scattered Clouds
9:15 AM 68.0 °F 60.8 °F 78% 29.98 in 10.0 mi South 3.5 mph - N/A   Mostly Cloudy
9:35 AM 69.8 °F 62.6 °F 78% 29.99 in 10.0 mi South 6.9 mph - N/A   Overcast
9:55 AM 69.8 °F 62.6 °F 78% 29.98 in 10.0 mi South 9.2 mph - N/A   Overcast
10:15 AM 69.8 °F 62.6 °F 78% 29.99 in 10.0 mi SSW 9.2 mph - N/A   Overcast
10:35 AM 69.8 °F 62.6 °F 78% 29.98 in 10.0 mi South 15.0 mph 18.4 mph N/A   Overcast
10:55 AM 69.8 °F 62.6 °F 78% 29.99 in 10.0 mi South 10.4 mph - N/A   Overcast
11:15 AM 71.6 °F 62.6 °F 73% 29.99 in 10.0 mi SSW 8.1 mph - N/A   Overcast
11:35 AM 71.6 °F 62.6 °F 73% 30.00 in 10.0 mi SSW 10.4 mph - N/A   Overcast
11:55 AM 71.6 °F 62.6 °F 73% 29.99 in 10.0 mi SSW 9.2 mph - N/A   Overcast
12:15 PM 71.6 °F 60.8 °F 69% 29.99 in 10.0 mi SSW 10.4 mph 16.1 mph N/A   Overcast
12:35 PM 71.6 °F 60.8 °F 69% 29.98 in 10.0 mi SSW 9.2 mph - N/A   Overcast
12:55 PM 71.6 °F 60.8 °F 69% 29.98 in 10.0 mi SSW 10.4 mph 16.1 mph N/A   Overcast
1:15 PM 71.6 °F 60.8 °F 69% 29.99 in 10.0 mi South 13.8 mph 19.6 mph N/A   Overcast
1:35 PM 69.8 °F 60.8 °F 73% 29.98 in 10.0 mi South 10.4 mph - N/A   Overcast
1:55 PM 69.8 °F 60.8 °F 73% 29.97 in 10.0 mi South 11.5 mph 16.1 mph N/A   Overcast
2:15 PM 69.8 °F 60.8 °F 73% 29.96 in 10.0 mi South 10.4 mph - N/A   Overcast
2:35 PM 69.8 °F 60.8 °F 73% 29.97 in 10.0 mi SSW 10.4 mph - N/A   Overcast
2:55 PM 69.8 °F 60.8 °F 73% 29.96 in 10.0 mi South 11.5 mph - N/A   Overcast
3:15 PM 69.8 °F 60.8 °F 73% 29.95 in 10.0 mi South 10.4 mph - N/A   Overcast
3:35 PM 71.6 °F 62.6 °F 73% 29.94 in 10.0 mi South 9.2 mph - N/A   Overcast
3:55 PM 71.6 °F 60.8 °F 69% 29.93 in 10.0 mi South 9.2 mph 17.3 mph N/A   Mostly Cloudy
4:15 PM 71.6 °F 60.8 °F 69% 29.93 in 10.0 mi South 9.2 mph - N/A   Overcast
4:35 PM 71.6 °F 62.6 °F 73% 29.93 in 10.0 mi South 9.2 mph - N/A   Overcast
4:55 PM 71.6 °F 60.8 °F 69% 29.93 in 10.0 mi SSW 8.1 mph - N/A   Overcast
5:15 PM 71.6 °F 60.8 °F 69% 29.94 in 10.0 mi SSW 10.4 mph 16.1 mph N/A   Overcast
5:35 PM 71.6 °F 60.8 °F 69% 29.94 in 10.0 mi SSW 8.1 mph - N/A   Overcast
5:55 PM 71.6 °F 60.8 °F 69% 29.94 in 10.0 mi SSW 9.2 mph - N/A   Overcast
6:15 PM 71.6 °F 60.8 °F 69% 29.94 in 10.0 mi SSW 9.2 mph - N/A   Overcast
6:35 PM 69.8 °F 60.8 °F 73% 29.94 in 10.0 mi SSW 6.9 mph - N/A   Mostly Cloudy
6:55 PM 69.8 °F 60.8 °F 73% 29.94 in 10.0 mi SSW 4.6 mph - N/A   Partly Cloudy
7:15 PM 68.0 °F 60.8 °F 78% 29.96 in 10.0 mi SSW 3.5 mph - N/A   Scattered Clouds
7:35 PM 68.0 °F 60.8 °F 78% 29.96 in 10.0 mi Calm Calm - N/A   Overcast
7:55 PM 66.2 °F 60.8 °F 83% 29.97 in 10.0 mi Calm Calm - N/A   Overcast
8:15 PM 66.2 °F 60.8 °F 83% 29.97 in 10.0 mi South 3.5 mph - N/A   Overcast
8:35 PM 66.2 °F 60.8 °F 83% 29.97 in 10.0 mi South 4.6 mph - N/A   Mostly Cloudy
8:55 PM 66.2 °F 60.8 °F 83% 29.98 in 10.0 mi South 5.8 mph - N/A   Partly Cloudy
9:15 PM 66.2 °F 60.8 °F 83% 29.99 in 10.0 mi South 5.8 mph - N/A   Clear
9:35 PM 66.2 °F 60.8 °F 83% 29.99 in 10.0 mi South 6.9 mph - N/A   Clear
9:55 PM 66.2 °F 60.8 °F 83% 30.00 in 10.0 mi South 5.8 mph - N/A   Clear
10:15 PM 64.4 °F 60.8 °F 88% 30.00 in 10.0 mi South 8.1 mph - N/A   Clear
10:35 PM 66.2 °F 60.8 °F 83% 30.00 in 10.0 mi South 5.8 mph - N/A   Clear
10:55 PM 66.2 °F 60.8 °F 83% 30.00 in 10.0 mi SSW 6.9 mph - N/A   Clear
11:15 PM 64.4 °F 60.8 °F 88% 30.00 in 10.0 mi SSW 6.9 mph - N/A   Clear
11:35 PM 64.4 °F 60.8 °F 88% 30.00 in 10.0 mi SSW 8.1 mph - N/A   Clear
11:55 PM 64.4 °F 60.8 °F 88% 30.00 in 10.0 mi SSW 8.1 mph - N/A   Mostly Cloudy